This is the latest recevied weather packets stored in our database for station/object OZ1IEP-5. If no packets are shown the sender has not sent any weather packets the latest 10 day(s).
| Time | Temp. | Humidity | Pressure | Rain* | Wind** | Luminosity | Snow |
|---|---|---|---|---|---|---|---|
| 1777650606 | 18.33° C | 50% | 1024.1 hPa | 0 mm | - | 74 W/m² | - |
| 1777650005 | 18.33° C | 49% | 1024.1 hPa | 0 mm | - | 53 W/m² | - |
| 1777649408 | 18.89° C | 49% | 1024.3 hPa | 0 mm | - | 114 W/m² | - |
| 1777648806 | 18.89° C | 48% | 1024.5 hPa | 0 mm | - | 171 W/m² | - |
| 1777648206 | 18.89° C | 48% | 1024.6 hPa | 0 mm | - | 97 W/m² | - |
| 1777647608 | 18.89° C | 48% | 1024.7 hPa | 0 mm | - | 492 W/m² | - |
| 1777647006 | 18.89° C | 49% | 1024.8 hPa | 0 mm | - | 399 W/m² | - |
| 1777646405 | 18.89° C | 45% | 1025 hPa | 0 mm | - | 545 W/m² | - |
| 1777645809 | 18.89° C | 47% | 1025.1 hPa | 0 mm | - | 568 W/m² | - |
| 1777645206 | 18.89° C | 43% | 1025.1 hPa | 0 mm | - | 589 W/m² | - |
| 1777644605 | 18.89° C | 46% | 1025.2 hPa | 0 mm | - | 610 W/m² | - |
| 1777644008 | 18.89° C | 45% | 1025.3 hPa | 0 mm | - | 631 W/m² | - |
| 1777643406 | 18.33° C | 45% | 1025.5 hPa | 0 mm | - | 649 W/m² | - |
| 1777642806 | 18.33° C | 45% | 1025.6 hPa | 0 mm | - | 668 W/m² | - |
| 1777642208 | 18.33° C | 45% | 1025.6 hPa | 0 mm | - | 686 W/m² | - |
| 1777641605 | 18.33° C | 50% | 1025.8 hPa | 0 mm | - | 701 W/m² | - |
| 1777641005 | 18.33° C | 49% | 1026 hPa | 0 mm | - | 717 W/m² | - |
| 1777640408 | 18.33° C | 50% | 1026.1 hPa | 0 mm | - | 728 W/m² | - |
| 1777639806 | 18.33° C | 50% | 1026.2 hPa | 0 mm | - | 742 W/m² | - |
| 1777639206 | 18.33° C | 49% | 1026.2 hPa | 0 mm | - | 752 W/m² | - |
| 1777638608 | 18.33° C | 49% | 1026.2 hPa | 0 mm | - | 765 W/m² | - |
| 1777638005 | 18.33° C | 49% | 1026.3 hPa | 0 mm | - | 772 W/m² | - |
| 1777637406 | 18.33° C | 50% | 1026.4 hPa | 0 mm | - | 780 W/m² | - |
| 1777636808 | 18.33° C | 48% | 1026.5 hPa | 0 mm | - | 788 W/m² | - |
| 1777636205 | 17.78° C | 50% | 1026.6 hPa | 0 mm | - | 786 W/m² | - |
* Rain latest hour (hover to see other rain measurements)
** Current wind speed in m/s (hover to see current wind gust speed)